Flag for U.S.A. Weather past 2 weeks in Vista, California, U.S.A.

Now
71 °F

Overcast.


Feels Like: 72 °F
Forecast: 62 / 78 °F
Wind: No wind

Location: McClellan-Palomar Airport

Current Time: Sep 2, 2014 at 10:57:09 PM

Latest Report: Sep 2, 2014 at 9:53 PM


Visibility: 10 mi

Pressure: 29.80 "Hg

Humidity: 78%

Dew point: 64 °F

Location of VistaLocation

Historic Weather in Vista — Graph

°F

Vista temperature yesterday

Maximum temperature yesterday: 75 °F (at 11:53 AM)
Minimum temperature yesterday: 66 °F (at 5:53 AM)
Average temperature yesterday: 70 °F

Past Weeks' High & Low Weather Summary

 TemperatureHumidityPressure
High83 °F (Aug 27, 2:53 PM)94% (Aug 31, 7:01 AM)30.01 "Hg (Aug 31, 7:01 AM)
Low63 °F (Aug 23, 6:53 AM)40% (Aug 27, 2:53 PM)29.75 "Hg (Aug 30, 6:53 PM)
Average71 °F73%29.88 "Hg
* Reported Aug 18 9:53 PM — Sep 2 9:53 PM, Vista, Weather by CustomWeather, © 2014

Note: Actual official high and low records may vary slightly from our data, if they occured in-between our weather recording intervals... More about our weather records

Advertising

Vista weather history for previous 24 hours

 ConditionsComfort  
Time TempWeatherWind HumidityBarometerVisibility
9:53 PM
Sep 2
71 °FOvercast.No wind78%29.80 "Hg10 mi
8:53 PM71 °FPassing clouds.No wind78%29.80 "Hg10 mi
7:53 PM71 °FPartly sunny.3 mph78%29.78 "Hg10 mi
6:53 PM72 °FSunny.5 mph76%29.76 "Hg10 mi
5:53 PM73 °FSunny.3 mph74%29.77 "Hg10 mi
4:53 PM74 °FSunny.8 mph69%29.77 "Hg10 mi
3:53 PM75 °FSunny.8 mph66%29.78 "Hg10 mi
2:53 PM76 °FSunny.10 mph64%29.80 "Hg10 mi
1:53 PM75 °FSunny.9 mph66%29.81 "Hg10 mi
12:53 PM76 °FSunny.8 mph62%29.82 "Hg10 mi
11:53 AM75 °FSunny.7 mph64%29.83 "Hg10 mi
10:53 AM75 °FSunny.6 mph62%29.83 "Hg10 mi
9:53 AM73 °FSunny.No wind64%29.84 "Hg10 mi
8:53 AM71 °FSunny.No wind68%29.84 "Hg10 mi
7:53 AM70 °FOvercast.3 mph71%29.84 "Hg9 mi
6:53 AM68 °FPassing clouds.3 mph76%29.85 "Hg7 mi
5:53 AM68 °FOvercast.No wind78%29.84 "Hg10 mi
4:53 AM68 °FOvercast.No wind78%29.84 "Hg10 mi
3:53 AM68 °FOvercast.No wind82%29.83 "Hg10 mi
2:53 AM68 °FOvercast.3 mph82%29.83 "Hg9 mi
1:53 AM68 °FOvercast.6 mph82%29.83 "Hg10 mi
12:53 AM68 °FOvercast.5 mph82%29.83 "Hg10 mi
11:53 PM
Sep 1
68 °FPassing clouds.6 mph82%29.83 "Hg9 mi
10:53 PM68 °FClear.5 mph82%29.82 "Hg9 mi
Weather by CustomWeather, © 2014

See weather overviewHow to use our weather pages